STARLINK-5173 (54059 NORAD) Tracking and Keplerian Element Data

This shows tracking and keplerian element data for the satellite.

Feedback or suggestion? Click here.




ElementValue
Catalog54059
NameSTARLINK-5173
Epoch Orbit548
Epoch Day325.33334491
Epoch Year2022
RAAN352.68
Inclination53.2171
Eccentricity0.0001849
Argument of Perigee37.9607
Mean Anonmoly139.22
Mean Motion15.46644774
Decay Rate-0.01191443
L11 54059U 22136J 22325.33334491 -.01191443 00000+0 -25796-1 0 9995
L22 54059 53.2171 352.6800 0001849 37.9607 139.2200 15.46644774 5484



Live tracking and technical data element details for STARLINK-5173 (NORAD 54059). STARLINK-5173 can be tracked NOW for your location showing map with azimuth and elevation plus other details from your city location.







IsCatalogInMostPopularTable: catalog: 54059, numindb: 1
Update: records affected: 1



GetName: 54059 STARLINK-5173

Hit Count: updated at: Mon, 28 Nov 2022 21:43:18 GMT